Regional Weather Roundup
Issued by NWS

Home | Current Version | Previous Version | Text Only | Print | Product List | Glossary Off
Versions: 1 2 3 4 5 6 7 8 9 10 11 12 13 14 15 16 17 18 19 20 21 22 23 24 25 26 27 28 29 30 31 32 33 34 35 36 37 38 39 40 41 42 43 44 45 46 47 48 49 50

535
ASUS43 KFSD 300010
RWRSD

WEATHER ROUNDUP FOR SOUTH DAKOTA
NATIONAL WEATHER SERVICE SIOUX FALLS SD
700 PM CDT MON MAY 29 2017

NOTE: "FAIR" INDICATES FEW OR NO CLOUDS BELOW 12,000 FEET WITH NO
SIGNIFICANT WEATHER AND/OR OBSTRUCTIONS TO VISIBILITY.


SDZ001>005-009-010-012>017-300100-
NORTHWEST AND NORTH CENTRAL SOUTH DAKOTA

CITY           SKY/WX    TMP DP  RH WIND       PRES   REMARKS
BUFFALO          N/A     67  31  26 NW23G30   30.02F
FAITH            N/A     67  30  25 NW21G32   30.04F
MOBRIDGE       MOSUNNY   67  33  28 NW15      29.99F
$$

SDZ012>016-024>037-041>051-057-063-072>074-300100-
SOUTHWEST AND SOUTH CENTRAL SOUTH DAKOTA

CITY           SKY/WX    TMP DP  RH WIND       PRES   REMARKS
RAPID CTY ARPT SUNNY     68  28  22 N20G28    30.08F
PIERRE         SUNNY     69  30  23 NW24G30   29.99F
CUSTER         SUNNY     61  18  18 NW12G18   30.16F
ELLSWORTH AFB  SUNNY     68  29  23 N22G28    30.08F
PHILIP         MOSUNNY   70  31  23 NW21G29   30.04F
PINE RIDGE     SUNNY     67  34  29 NW7       30.10F
SPEARFISH      FAIR      63  32  31 NW14G22   30.14S
WINNER         FAIR      68  37  32 N12       30.03F
$$

SDZ004>011-016>023-039-040-300100-
NORTHEAST SOUTH DAKOTA

CITY           SKY/WX    TMP DP  RH WIND       PRES   REMARKS
ABERDEEN       CLOUDY    64  34  32 NW22G30   29.96F
WATERTOWN      CLOUDY    61  40  45 NW17G24   29.95S
BROOKINGS      SUNNY     61  45  55 NW16      29.97F
SISSETON         N/A     61  43  51 N18G32    29.91F
$$

SDZ017-020-022-023-036>040-048>070-300100-
SOUTHEAST SOUTH DAKOTA

CITY           SKY/WX    TMP DP  RH WIND       PRES   REMARKS
SIOUX FALLS    PTSUNNY   62  46  55 NW15G22   29.98S
HURON          PTSUNNY   66  37  34 N15       29.97S
CHAMBERLAIN    PTSUNNY   68  39  34 NW6       30.00F
MITCHELL       PTSUNNY   62  45  53 NW5       29.99F
YANKTON        MOSUNNY   66  42  41 NW16      30.01F
$$

ABBREVIATIONS USED IN REMARKS
   TC - TEMPERATURE IN CELSIUS
  WCI - WIND CHILL INDEX
   HX - HEAT INDEX
  VSB - VISIBILITY





USA.gov is the U.S. government's official web portal to all federal, state and local government web resources and services.